Location: Coche
(10.4506°N, 66.9257°W)
Time: 14:44:21
(UTC+00:00)

Ariane H10-3 - Pass Details

Date: 08 December 2021
Orbit: 511 x 36411 km, 4.7° (Epoch: 20 January)

Event Time Altitude Azimuth Distance (km) Brightness Sun altitude
Rises 22:51:46 0° 247° (WSW) 2,779 7.2 -11.3°
Reaches altitude 10° 22:54:24 10° 222° (SW) 1,708 4.9 -11.9°
Maximum altitude 22:56:34 17° 176° (S) 1,449 3.7 -12.4°
Drops below altitude 10° 22:59:27 10° 132° (SE) 2,324 4.2 -13.1°
Enters shadow 23:02:37 - 115° (ESE) 3,789 5.2 -13.8°
